Location: Buch
(50.1863°N, 11.0141°E)
Time: 09:17:01
(UTC+00:00)

CENTAUR R/B - Pass Details

Date: 18 January 2020
Orbit: 766 x 1422 km, 63.5° (Epoch: 19 February)

Event Time Altitude Azimuth Distance (km) Brightness Sun altitude
Exits shadow 04:16:21 27° 332° (NNW) 2,173 4.0 -26.8°
Maximum altitude 04:20:31 51° 33° (NNE) 1,608 3.7 -26.1°
Drops below altitude 10° 04:28:49 10° 108° (ESE) 3,475 6.3 -24.8°
Sets 04:31:58 0° 113° (ESE) 4,480 7.1 -24.3°
